When you browse on this site, cookies collect data to enhance your experience and personalize the content and advertising you see.
Visit our Privacy Policy to learn more. By continuing to use the site, you agree to this use of cookies and data.
  • In Austria
  • List of Countries
  • For 7 days
  • Water Temperature
  • Satellite Maps
  • Weather Map
  • News
  • Weather Widgets
  • user-avatar
    Login

    Hourly Weather Riomaggiore

    Today, 19 July, Friday

    Time Temperature Precipitation Wind Pressure Humidity
    00:00 +21°C° 0 mm 1 mps 750 mmHg 71%
    01:00 +20°C° 0 mm 2 mps 751 mmHg 68%
    02:00 +20°C° 0 mm 2 mps 751 mmHg 67%
    03:00 +20°C° 0 mm 2 mps 751 mmHg 65%
    04:00 +21°C° 0 mm 1 mps 751 mmHg 63%
    05:00 +22°C° 0 mm 1 mps 751 mmHg 62%
    06:00 +23°C° 0 mm 1 mps 751 mmHg 62%
    07:00 +25°C° 0 mm 1 mps 752 mmHg 60%
    08:00 +26°C° 0 mm 1 mps 752 mmHg 56%
    09:00 +28°C° 0 mm 1 mps 752 mmHg 52%
    10:00 +29°C° 0 mm 2 mps 752 mmHg 48%
    11:00 +29°C° 0 mm 2 mps 752 mmHg 48%
    12:00 +30°C° 0 mm 1 mps 752 mmHg 47%
    13:00 +30°C° 0 mm 2 mps 753 mmHg 46%
    14:00 +30°C° 0 mm 2 mps 752 mmHg 48%
    15:00 +30°C° 0 mm 2 mps 752 mmHg 49%
    16:00 +29°C° 0 mm 2 mps 752 mmHg 51%
    17:00 +28°C° 0 mm 1 mps 752 mmHg 59%
    18:00 +27°C° 0 mm 1 mps 752 mmHg 67%
    19:00 +25°C° 0 mm 1 mps 752 mmHg 75%
    20:00 +24°C° 0 mm 1 mps 752 mmHg 77%
    21:00 +23°C° 0 mm 1 mps 752 mmHg 79%
    22:00 +22°C° 0 mm 1 mps 752 mmHg 81%
    23:00 +21°C° 0 mm 1 mps 752 mmHg 79%

    Tomorrow, 20 July, Saturday

    Time Temperature Precipitation Wind Pressure Humidity
    00:00 +21°C° 0 mm 1 mps 753 mmHg 78%
    01:00 +21°C° 0 mm 1 mps 753 mmHg 76%
    02:00 +21°C° 0 mm 1 mps 753 mmHg 76%
    03:00 +20°C° 0 mm 2 mps 753 mmHg 75%
    04:00 +20°C° 0 mm 2 mps 753 mmHg 75%
    05:00 +21°C° 0 mm 2 mps 753 mmHg 72%
    06:00 +23°C° 0 mm 1 mps 753 mmHg 69%
    07:00 +24°C° 0 mm 1 mps 754 mmHg 67%
    08:00 +26°C° 0 mm 1 mps 754 mmHg 61%
    09:00 +28°C° 0 mm 2 mps 754 mmHg 54%
    10:00 +30°C° 0 mm 2 mps 754 mmHg 48%
    11:00 +30°C° 0 mm 2 mps 754 mmHg 47%
    12:00 +30°C° 0 mm 2 mps 754 mmHg 46%
    13:00 +31°C° 0 mm 1 mps 754 mmHg 45%
    14:00 +31°C° 0 mm 1 mps 754 mmHg 45%
    15:00 +30°C° 0 mm 1 mps 754 mmHg 45%
    16:00 +30°C° 0 mm 1 mps 754 mmHg 45%
    17:00 +28°C° 0 mm 1 mps 754 mmHg 53%
    18:00 +25°C° 0 mm 0 mps 754 mmHg 60%
    19:00 +24°C° 0 mm 0 mps 754 mmHg 68%
    20:00 +22°C° 0 mm 0 mps 754 mmHg 67%
    21:00 +23°C° 0 mm 1 mps 754 mmHg 66%
    22:00 +22°C° 0 mm 1 mps 755 mmHg 65%
    23:00 +22°C° 0 mm 1 mps 755 mmHg 63%

    Day after tomorrow, 21 July, Sunday

    Time Temperature Precipitation Wind Pressure Humidity
    00:00 +22°C° 0 mm 1 mps 755 mmHg 61%
    01:00 +22°C° 0 mm 1 mps 755 mmHg 59%
    02:00 +21°C° 0 mm 2 mps 755 mmHg 60%
    03:00 +21°C° 0 mm 2 mps 755 mmHg 61%
    04:00 +20°C° 0 mm 2 mps 755 mmHg 62%
    05:00 +21°C° 0 mm 2 mps 755 mmHg 63%
    06:00 +24°C° 0 mm 2 mps 755 mmHg 63%
    07:00 +25°C° 0 mm 1 mps 755 mmHg 64%
    08:00 +26°C° 0 mm 2 mps 755 mmHg 60%
    09:00 +28°C° 0 mm 2 mps 755 mmHg 55%
    10:00 +30°C° 0 mm 2 mps 756 mmHg 51%
    11:00 +30°C° 0 mm 2 mps 755 mmHg 50%
    12:00 +31°C° 0 mm 2 mps 755 mmHg 48%
    13:00 +31°C° 0 mm 2 mps 755 mmHg 47%
    14:00 +31°C° 0 mm 2 mps 755 mmHg 48%
    15:00 +30°C° 0 mm 2 mps 755 mmHg 49%
    16:00 +30°C° 0 mm 2 mps 755 mmHg 50%
    17:00 +29°C° 0 mm 1 mps 755 mmHg 59%
    18:00 +27°C° 0 mm 1 mps 755 mmHg 67%
    19:00 +24°C° 0 mm 0 mps 755 mmHg 75%
    20:00 +25°C° 0 mm 1 mps 755 mmHg 74%
    21:00 +24°C° 0 mm 1 mps 756 mmHg 72%
    22:00 +23°C° 0 mm 1 mps 756 mmHg 71%
    23:00 +23°C° 0 mm 1 mps 756 mmHg 67%

    22 July, Monday

    Time Temperature Precipitation Wind Pressure Humidity
    00:00 +23°C° 0 mm 1 mps 756 mmHg 63%
    01:00 +23°C° 0 mm 2 mps 756 mmHg 60%
    02:00 +23°C° 0 mm 1 mps 756 mmHg 61%
    03:00 +23°C° 0 mm 1 mps 756 mmHg 61%
    04:00 +23°C° 0 mm 1 mps 756 mmHg 62%
    05:00 +24°C° 0 mm 1 mps 756 mmHg 64%
    06:00 +25°C° 0 mm 1 mps 756 mmHg 65%
    07:00 +26°C° 0 mm 1 mps 756 mmHg 66%
    08:00 +28°C° 0 mm 1 mps 756 mmHg 60%
    09:00 +30°C° 0 mm 1 mps 756 mmHg 54%
    10:00 +32°C° 0 mm 1 mps 757 mmHg 47%
    11:00 +33°C° 0 mm 1 mps 756 mmHg 46%
    12:00 +33°C° 0 mm 1 mps 756 mmHg 45%
    13:00 +35°C° 0 mm 2 mps 756 mmHg 44%
    14:00 +34°C° 0 mm 2 mps 756 mmHg 45%
    15:00 +34°C° 0 mm 2 mps 755 mmHg 46%
    16:00 +34°C° 0 mm 2 mps 755 mmHg 47%
    17:00 +31°C° 0 mm 2 mps 755 mmHg 55%
    18:00 +30°C° 0 mm 2 mps 755 mmHg 62%
    19:00 +29°C° 0 mm 2 mps 754 mmHg 70%
    20:00 +28°C° 0 mm 2 mps 755 mmHg 71%
    21:00 +27°C° 0 mm 3 mps 755 mmHg 72%
    22:00 +27°C° 0 mm 3 mps 755 mmHg 74%
    23:00 +26°C° 0 mm 2 mps 755 mmHg 73%

    23 July, Tuesday

    Time Temperature Precipitation Wind Pressure Humidity
    00:00 +26°C° 0 mm 2 mps 755 mmHg 72%
    01:00 +26°C° 0 mm 2 mps 755 mmHg 71%
    02:00 +26°C° 0 mm 1 mps 755 mmHg 72%
    03:00 +25°C° 0 mm 1 mps 754 mmHg 72%
    04:00 +25°C° 0 mm 1 mps 754 mmHg 73%
    05:00 +26°C° 0 mm 1 mps 754 mmHg 72%
    06:00 +27°C° 0 mm 1 mps 754 mmHg 71%
    07:00 +28°C° 0 mm 1 mps 754 mmHg 70%
    08:00 +30°C° 0 mm 1 mps 754 mmHg 61%
    09:00 +33°C° 0 mm 1 mps 754 mmHg 52%
    10:00 +33°C° 0 mm 0 mps 755 mmHg 42%
    11:00 +35°C° 0 mm 1 mps 754 mmHg 42%
    12:00 +35°C° 0 mm 1 mps 754 mmHg 42%
    13:00 +37°C° 0 mm 2 mps 754 mmHg 42%
    14:00 +36°C° 0 mm 2 mps 754 mmHg 43%
    15:00 +36°C° 0 mm 2 mps 753 mmHg 44%
    16:00 +36°C° 0 mm 2 mps 753 mmHg 45%
    17:00 +34°C° 0 mm 2 mps 753 mmHg 52%
    18:00 +33°C° 0 mm 3 mps 753 mmHg 60%
    19:00 +31°C° 0 mm 3 mps 753 mmHg 68%
    20:00 +30°C° 0 mm 3 mps 753 mmHg 69%
    21:00 +29°C° 0 mm 3 mps 753 mmHg 70%
    22:00 +28°C° 0 mm 2 mps 753 mmHg 71%
    23:00 +27°C° 0 mm 2 mps 753 mmHg 71%

    24 July, Wednesday

    Time Temperature Precipitation Wind Pressure Humidity
    00:00 +27°C° 0 mm 2 mps 753 mmHg 72%
    01:00 +26°C° 0 mm 2 mps 753 mmHg 72%
    02:00 +26°C° 0 mm 2 mps 753 mmHg 71%
    03:00 +26°C° 0 mm 2 mps 753 mmHg 70%
    04:00 +26°C° 0 mm 2 mps 753 mmHg 68%
    05:00 +27°C° 0 mm 2 mps 753 mmHg 67%
    06:00 +27°C° 0 mm 2 mps 753 mmHg 65%
    07:00 +28°C° 0 mm 2 mps 753 mmHg 63%
    08:00 +30°C° 0 mm 1 mps 754 mmHg 55%
    09:00 +33°C° 0 mm 1 mps 754 mmHg 47%
    10:00 +36°C° 0 mm 1 mps 754 mmHg 38%
    11:00 +36°C° 0 mm 1 mps 754 mmHg 38%
    12:00 +37°C° 0 mm 1 mps 754 mmHg 38%
    13:00 +38°C° 0 mm 2 mps 753 mmHg 37%
    14:00 +38°C° 0 mm 2 mps 753 mmHg 38%
    15:00 +37°C° 0 mm 2 mps 753 mmHg 40%
    16:00 +36°C° 0 mm 1 mps 752 mmHg 41%
    17:00 +35°C° 0 mm 2 mps 752 mmHg 48%
    18:00 +34°C° 0 mm 2 mps 752 mmHg 55%
    19:00 +31°C° 0 mm 3 mps 752 mmHg 62%
    20:00 +30°C° 0 mm 3 mps 752 mmHg 63%
    21:00 +29°C° 0 mm 3 mps 752 mmHg 64%
    22:00 +28°C° 0 mm 3 mps 753 mmHg 65%
    23:00 +27°C° 0 mm 3 mps 753 mmHg 65%
    Show more